Location: Unspecified
(0.0000°N, 0.0000°E)
Time: 05:55:39
(UTC+02:00)

GPS 2-15 Rocket1 - Visible Passes

Search period start: 25 April 2014 00:00
Search period end: 05 May 2014 00:00
Orbit: 628 x 682 km, 19.8° (Epoch: 24 April)

Date Brightness Start Highest point End Pass type
(mag) Time Alt. Az. Time Alt. Az. Time Alt. Az.
25 Apr 5.6 07:29:49 10° NNW 07:32:56 17° NNE 07:36:06 10° ENE visible
25 Apr 3.0 21:26:59 10° WSW 21:31:43 65° SSE 21:31:51 65° SSE visible
26 Apr 5.8 06:14:46 10° N 06:16:18 11° NNE 06:17:51 10° NNE visible
26 Apr 4.0 21:54:57 10° WSW 21:58:33 47° WNW 21:58:33 47° WNW visible
27 Apr 5.5 06:41:13 10° NNW 06:44:31 18° NNE 06:47:51 10° ENE visible
27 Apr 3.1 20:38:28 10° WSW 20:43:16 75° SSE 20:47:29 13° ENE visible
27 Apr 5.5 22:23:23 10° W 22:25:16 21° WNW 22:25:16 21° WNW visible
28 Apr 6.0 05:28:49 12° NNE 05:28:49 12° NNE 05:29:50 10° NE visible
28 Apr 4.7 07:08:21 10° NW 07:12:35 32° NNE 07:16:54 10° E visible
28 Apr 3.7 21:06:30 10° W 21:11:13 55° NNW 21:14:13 21° NE visible
29 Apr 5.2 05:55:23 19° N 05:56:06 20° NNE 05:59:36 10° ENE visible
29 Apr 4.7 21:35:02 10° W 21:39:12 29° NNW 21:40:56 23° NNE visible
30 Apr 4.4 06:22:01 24° NNW 06:24:08 35° NNE 06:28:31 10° E visible
30 Apr 4.1 20:18:03 10° W 20:22:45 48° NNW 20:27:22 10° NE visible
30 Apr 5.4 22:04:10 10° WNW 22:07:16 17° NNW 22:07:37 17° NNW visible
01 May 6.2 05:10:55 12° ENE 05:10:55 12° ENE 05:11:20 10° ENE visible
01 May 3.3 06:48:42 18° WNW 06:52:06 70° NNE 06:56:52 10° ESE visible
01 May 5.0 20:46:40 10° WNW 20:50:44 26° NNW 20:54:45 10° NE visible
02 May 5.1 05:37:37 27° ENE 05:37:37 27° ENE 05:40:08 10° E visible
02 May 3.3 07:15:24 10° W 07:20:02 59° SSW 07:24:46 10° ESE visible
02 May 5.6 21:15:56 10° NW 21:18:50 16° NNW 21:21:43 10° NNE visible
03 May 3.4 06:04:20 63° E 06:04:20 63° E 06:08:22 10° ESE visible
04 May 3.3 06:31:01 48° SW 06:31:34 51° SSW 06:36:11 10° SE visible
04 May 5.7 20:27:43 10° NW 20:30:23 15° NNW 20:33:02 10° NNE visible
